FW1000 Weather Reports


time (UTC)temp
C
wind
direction
speed
KPH
gust
KPH
rain 1hr
cm
rain 24hr
cm
rain mn
cm
humidity
%
barometer
mb
20260507001552 23 88 0.0 3.2 0.00 0.00 0.00 82 993.9
20260507000049 24 103 0.0 8.0 0.00 0.00 0.00 82 993.7
20260506234548 24 149 0.0 11.3 0.00 0.00 0.00 82 993.6
20260506233055 24 92 0.0 8.0 0.00 0.00 0.00 81 993.8
20260506231547 25 69 0.0 11.3 0.00 0.00 0.00 81 993.7
20260506230045 25 69 0.0 14.5 0.00 0.00 0.00 81 993.8
20260506224544 25 158 0.0 14.5 0.00 0.00 0.00 80 993.9
20260506223044 25 116 0.0 12.9 0.00 0.00 0.00 81 994.1
20260506221543 25 207 0.0 11.3 0.00 0.00 0.00 81 994.0
20260506220047 25 250 1.6 17.7 0.00 0.00 0.00 80 993.9
20260506214549 26 139 0.0 1.6 0.00 0.00 0.00 78 994.0
20260506213040 26 108 0.0 3.2 0.00 0.00 0.00 79 994.0
20260506211539 26 174 0.0 4.8 0.00 0.00 0.00 79 994.1
20260506210039 26 133 0.0 12.9 0.00 0.00 0.00 78 994.2
20260506204543 26 32 0.0 4.8 0.00 0.00 0.00 78 994.2
20260506203037 27 124 0.0 1.6 0.00 0.00 0.00 78 994.3
20260506201535 27 101 0.0 6.4 0.00 0.00 0.00 77 994.4
20260506200033 27 233 0.0 1.6 0.00 0.00 0.00 76 994.7
20260506194531 27 53 0.0 8.0 0.00 0.00 0.00 78 994.8
20260506193030 27 104 0.0 3.2 0.00 0.00 0.00 77 995.2
20260506191529 27 85 0.0 12.9 0.00 0.00 0.00 77 995.3
20260506190028 26 86 0.0 3.2 0.00 0.00 0.00 76 995.4
20260506184527 27 106 0.0 14.5 0.00 0.00 0.00 75 995.6
20260506183028 27 181 0.0 14.5 0.00 0.00 0.00 75 995.8
20260506181526 27 91 0.0 1.6 0.00 0.00 0.00 75 995.9
20260506180025 27 77 0.0 4.8 0.00 0.00 0.00 74 995.9
20260506174524 27 84 0.0 12.9 0.00 0.00 0.00 72 996.1
20260506173023 27 291 0.0 3.2 0.00 0.00 0.00 73 996.3
20260506171524 27 126 0.0 9.7 0.00 0.00 0.00 72 996.5
20260506170023 26 244 0.0 14.5 0.00 0.00 0.00 72 996.6
20260506164522 26 89 0.0 12.9 0.00 0.00 0.00 72 996.8
20260506163020 27 87 0.0 6.4 0.00 0.00 0.00 73 996.6
20260506161519 26 71 0.0 14.5 0.00 0.00 0.00 73 997.0
20260506160018 27 74 0.0 8.0 0.00 0.00 0.00 71 997.0
20260506154517 27 93 0.0 9.7 0.00 0.00 0.00 68 996.9
20260506153017 27 85 0.0 4.8 0.00 0.00 0.00 69 996.9
20260506151516 26 84 0.0 1.6 0.00 0.00 0.00 71 997.0
20260506150016 27 71 0.0 3.2 0.00 0.00 0.00 65 996.9
20260506144518 27 267 0.0 4.8 0.00 0.00 0.00 60 996.7
20260506143009 26 248 0.0 0.0 0.00 0.00 0.00 62 996.7
20260506141507 26 252 0.0 4.8 0.00 0.00 0.00 64 996.6
20260506140004 25 245 0.0 3.2 0.00 0.00 0.00 66 996.7
20260506134604 25 264 0.0 1.6 0.00 0.00 0.00 69 996.6
20260506133101 25 306 0.0 3.2 0.00 0.00 0.00 70 996.6
20260506131556 24 266 0.0 3.2 0.00 0.00 0.00 71 996.6
20260506130052 23 245 0.0 3.2 0.00 0.00 0.00 73 996.6
20260506124547 23 274 0.0 3.2 0.00 0.00 0.00 75 996.4
20260506123044 22 233 0.0 0.0 0.00 0.00 0.00 77 996.3
20260506121541 21 258 0.0 1.6 0.00 0.00 0.00 79 996.2
20260506120041 20 260 0.0 0.0 0.00 0.00 0.00 80 996.1
20260506114540 20 255 0.0 1.6 0.00 0.00 0.00 81 996.1
20260506113040 19 253 0.0 0.0 0.00 0.00 0.00 81 995.8
20260506111538 19 252 0.0 0.0 0.00 0.00 0.00 82 995.7
20260506110039 18 252 0.0 0.0 0.00 0.00 0.00 81 995.7
20260506104539 18 257 0.0 0.0 0.00 0.00 0.00 81 995.6
20260506103037 18 262 0.0 0.0 0.00 0.00 0.00 81 995.3
20260506101536 18 268 0.0 3.2 0.00 0.00 0.00 80 995.4
20260506100034 18 269 0.0 0.0 0.00 0.00 0.00 80 995.4
20260506094533 18 264 0.0 0.0 0.00 0.00 0.00 79 995.5
20260506093038 19 262 0.0 0.0 0.00 0.00 0.00 78 995.2
20260506091532 19 250 0.0 0.0 0.00 0.00 0.00 77 995.0
20260506090028 19 263 0.0 0.0 0.00 0.00 0.00 77 995.1
20260506084535 19 245 0.0 0.0 0.00 0.00 0.00 76 995.0
20260506083028 19 256 0.0 0.0 0.00 0.00 0.00 76 995.0
20260506081527 19 256 0.0 0.0 0.00 0.00 0.00 75 995.2
20260506073024 19 261 0.0 0.0 0.00 0.00 0.00 75 994.9
20260506071522 19 261 0.0 0.0 0.00 0.00 0.00 76 995.1
20260506061524 19 258 0.0 0.0 0.00 0.00 0.00 76 995.6
20260506044510 20 271 0.0 0.0 0.00 0.00 0.00 75 996.1
20260506043004 20 271 0.0 0.0 0.00 0.00 0.00 75 996.1
20260506041601 21 271 0.0 0.0 0.00 0.00 0.00 74 996.3
20260506040057 21 271 0.0 0.0 0.00 0.00 0.00 73 996.3
20260506034603 22 271 0.0 0.0 0.00 0.00 0.00 72 996.2
20260506033114 22 110 0.0 1.6 0.00 0.00 0.00 73 996.2
20260506031555 22 110 0.0 1.6 0.00 0.00 0.00 72 996.2
20260506024610 22 84 0.0 11.3 0.00 0.00 0.00 67 995.6
20260506023102 22 58 0.0 12.9 0.00 0.00 0.00 66 995.7
20260506021558 22 98 0.0 4.8 0.00 0.00 0.00 64 995.5
20260506020052 22 95 0.0 11.3 0.00 0.00 0.00 63 995.5
20260506014551 22 90 0.0 6.4 0.00 0.00 0.00 64 995.5
20260506013057 22 79 0.0 3.2 0.00 0.00 0.00 64 995.5
20260506011612 22 65 0.0 9.7 0.00 0.00 0.00 64 995.4
20260506010051 22 98 0.0 4.8 0.00 0.00 0.00 64 995.3
20260506004549 22 95 0.0 4.8 0.00 0.00 0.00 65 995.4
20260506003048 22 93 0.0 1.6 0.00 0.00 0.00 64 995.3